Time,TemperatureF,DewpointF,PressureIn,WindDirection,WindDirectionDegrees,WindSpeedMPH,WindSpeedGustMPH,Humidity,HourlyPrecipIn,Conditions,Clouds,dailyrainin,SolarRadiationWatts/m^2,SoftwareType,DateUTC
2013-05-04 00:01:00,38.0,35.0,-100.00,North,11,3.0,9.0,90,0.00,,,0.12,0.000000,,2013-05-04 06:01:00,
2013-05-04 00:22:00,38.0,34.0,-100.00,North,359,4.0,9.0,86,0.00,,,0.12,0.000000,,2013-05-04 06:22:00,
2013-05-04 00:32:00,38.0,34.0,-100.00,North,359,4.0,9.0,86,0.00,,,0.12,0.000000,,2013-05-04 06:32:00,
2013-05-04 00:42:00,38.0,34.0,-100.00,North,359,4.0,9.0,86,0.00,,,0.12,0.000000,,2013-05-04 06:42:00,
2013-05-04 00:52:00,38.0,34.0,-100.00,North,359,4.0,9.0,86,0.00,,,0.12,0.000000,,2013-05-04 06:52:00,
2013-05-04 01:01:00,38.0,34.0,-100.00,North,359,4.0,9.0,86,0.00,,,0.12,0.000000,,2013-05-04 07:01:00,
2013-05-04 01:32:00,38.0,32.0,-100.00,North,350,5.0,14.0,80,0.01,,,0.13,0.000000,,2013-05-04 07:32:00,
2013-05-04 01:42:00,38.0,32.0,-100.00,North,350,5.0,14.0,80,0.01,,,0.13,0.000000,,2013-05-04 07:42:00,
2013-05-04 01:52:00,38.0,32.0,-100.00,North,350,5.0,14.0,80,0.01,,,0.13,0.000000,,2013-05-04 07:52:00,
2013-05-04 02:01:00,38.0,32.0,-100.00,North,350,5.0,14.0,80,0.01,,,0.13,0.000000,,2013-05-04 08:01:00,
2013-05-04 02:02:00,38.0,32.0,-100.00,NNW,343,5.0,11.0,78,0.00,,,0.13,0.000000,,2013-05-04 08:02:00,
2013-05-04 02:32:00,38.0,32.0,-100.00,NNW,343,5.0,11.0,78,0.00,,,0.13,0.000000,,2013-05-04 08:32:00,
2013-05-04 02:42:00,38.0,32.0,-100.00,NNW,343,5.0,11.0,78,0.00,,,0.13,0.000000,,2013-05-04 08:42:00,
2013-05-04 02:52:00,38.0,32.0,-100.00,NNW,343,5.0,11.0,78,0.00,,,0.13,0.000000,,2013-05-04 08:52:00,
2013-05-04 03:02:00,39.0,31.0,-100.00,North,350,5.0,11.0,74,0.00,,,0.13,0.000000,,2013-05-04 09:02:00,
2013-05-04 03:32:00,39.0,31.0,-100.00,North,350,5.0,11.0,74,0.00,,,0.13,0.000000,,2013-05-04 09:32:00,
2013-05-04 03:42:00,39.0,31.0,-100.00,North,350,5.0,11.0,74,0.00,,,0.13,0.000000,,2013-05-04 09:42:00,
2013-05-04 03:53:00,39.0,31.0,-100.00,North,350,5.0,11.0,74,0.00,,,0.13,0.000000,,2013-05-04 09:53:00,
2013-05-04 04:02:00,39.0,30.0,-100.00,NNE,19,4.0,10.0,69,0.00,,,0.13,0.000000,,2013-05-04 10:02:00,
2013-05-04 04:23:00,39.0,30.0,-100.00,NNE,19,4.0,10.0,69,0.00,,,0.13,0.000000,,2013-05-04 10:23:00,
2013-05-04 04:33:00,39.0,30.0,-100.00,NNE,19,4.0,10.0,69,0.00,,,0.13,0.000000,,2013-05-04 10:33:00,
2013-05-04 04:42:00,39.0,30.0,-100.00,NNE,19,4.0,10.0,69,0.00,,,0.13,0.000000,,2013-05-04 10:42:00,
2013-05-04 04:53:00,39.0,30.0,-100.00,NNE,19,4.0,10.0,69,0.00,,,0.13,0.000000,,2013-05-04 10:53:00,
2013-05-04 05:02:00,38.0,28.0,-100.00,North,9,3.0,7.0,66,0.00,,,0.13,0.000000,,2013-05-04 11:02:00,
2013-05-04 05:22:00,38.0,28.0,-100.00,North,9,3.0,7.0,66,0.00,,,0.13,0.000000,,2013-05-04 11:22:00,
2013-05-04 05:32:00,38.0,28.0,-100.00,North,9,3.0,7.0,66,0.00,,,0.13,0.000000,,2013-05-04 11:32:00,
2013-05-04 05:46:00,38.0,28.0,-100.00,North,9,3.0,7.0,66,0.00,,,0.13,0.000000,,2013-05-04 11:46:00,
2013-05-04 05:59:00,38.0,28.0,-100.00,North,9,3.0,7.0,66,0.00,,,0.13,0.000000,,2013-05-04 11:59:00,
2013-05-04 06:37:00,39.0,28.0,-100.00,North,1,3.0,9.0,65,0.00,,,0.13,0.000000,,2013-05-04 12:37:00,
2013-05-04 06:52:00,39.0,28.0,-100.00,North,1,3.0,9.0,65,0.00,,,0.13,0.000000,,2013-05-04 12:52:00,
2013-05-04 07:01:00,39.0,28.0,-100.00,North,1,3.0,9.0,65,0.00,,,0.13,0.000000,,2013-05-04 13:01:00,
2013-05-04 07:32:00,40.0,29.0,-100.00,NNE,14,3.0,8.0,65,0.00,,,0.13,19.000000,,2013-05-04 13:32:00,
2013-05-04 07:42:00,40.0,29.0,-100.00,NNE,14,3.0,8.0,65,0.00,,,0.13,19.000000,,2013-05-04 13:42:00,
2013-05-04 07:52:00,40.0,29.0,-100.00,NNE,14,3.0,8.0,65,0.00,,,0.13,19.000000,,2013-05-04 13:52:00,
2013-05-04 08:01:00,40.0,29.0,-100.00,NNE,14,3.0,8.0,65,0.00,,,0.13,19.000000,,2013-05-04 14:01:00,
2013-05-04 08:21:00,40.0,29.0,-100.00,ENE,59,3.0,8.0,64,0.00,,,0.13,60.000000,,2013-05-04 14:21:00,
2013-05-04 08:32:00,40.0,29.0,-100.00,ENE,59,3.0,8.0,64,0.00,,,0.13,60.000000,,2013-05-04 14:32:00,
2013-05-04 08:42:00,40.0,29.0,-100.00,ENE,59,3.0,8.0,64,0.00,,,0.13,60.000000,,2013-05-04 14:42:00,
2013-05-04 08:52:00,40.0,29.0,-100.00,ENE,59,3.0,8.0,64,0.00,,,0.13,60.000000,,2013-05-04 14:52:00,
2013-05-04 09:01:00,40.0,29.0,-100.00,ENE,59,3.0,8.0,64,0.00,,,0.13,60.000000,,2013-05-04 15:01:00,
2013-05-04 09:02:00,42.0,31.0,-100.00,ENE,72,2.0,8.0,64,0.00,,,0.13,138.000000,,2013-05-04 15:02:00,
2013-05-04 09:22:00,42.0,31.0,-100.00,ENE,72,2.0,8.0,64,0.00,,,0.13,138.000000,,2013-05-04 15:22:00,
2013-05-04 09:33:00,42.0,31.0,-100.00,ENE,72,2.0,8.0,64,0.00,,,0.13,138.000000,,2013-05-04 15:33:00,
2013-05-04 09:43:00,42.0,31.0,-100.00,ENE,72,2.0,8.0,64,0.00,,,0.13,138.000000,,2013-05-04 15:43:00,
2013-05-04 09:53:00,42.0,31.0,-100.00,ENE,72,2.0,8.0,64,0.00,,,0.13,138.000000,,2013-05-04 15:53:00,
2013-05-04 10:02:00,47.0,33.0,-100.00,ENE,63,6.0,15.0,57,0.00,,,0.13,563.000000,,2013-05-04 16:02:00,
2013-05-04 10:33:00,47.0,33.0,-100.00,ENE,63,6.0,15.0,57,0.00,,,0.13,563.000000,,2013-05-04 16:33:00,
2013-05-04 11:32:00,47.0,31.0,-100.00,ENE,73,5.0,13.0,54,0.00,,,0.13,724.000000,,2013-05-04 17:32:00,
2013-05-04 11:42:00,47.0,31.0,-100.00,ENE,73,5.0,13.0,54,0.00,,,0.13,724.000000,,2013-05-04 17:42:00,
2013-05-04 11:52:00,47.0,31.0,-100.00,ENE,73,5.0,13.0,54,0.00,,,0.13,724.000000,,2013-05-04 17:52:00,
2013-05-04 12:01:00,47.0,31.0,-100.00,ENE,73,5.0,13.0,54,0.00,,,0.13,724.000000,,2013-05-04 18:01:00,
2013-05-04 12:32:00,44.0,30.0,-100.00,ENE,69,4.0,9.0,58,0.00,,,-99.99,374.000000,,2013-05-04 18:32:00,
2013-05-04 12:42:00,44.0,30.0,-100.00,ENE,69,4.0,9.0,58,0.00,,,-99.99,374.000000,,2013-05-04 18:42:00,
2013-05-04 12:52:00,44.0,30.0,-100.00,ENE,69,4.0,9.0,58,0.00,,,-99.99,374.000000,,2013-05-04 18:52:00,
2013-05-04 13:01:00,44.0,30.0,-100.00,ENE,69,4.0,9.0,58,0.00,,,-99.99,374.000000,,2013-05-04 19:01:00,
2013-05-04 13:32:00,44.0,29.0,-100.00,NE,53,4.0,10.0,56,0.00,,,0.13,241.000000,,2013-05-04 19:32:00,
2013-05-04 13:42:00,44.0,29.0,-100.00,NE,53,4.0,10.0,56,0.00,,,0.13,241.000000,,2013-05-04 19:42:00,
2013-05-04 13:52:00,44.0,29.0,-100.00,NE,53,4.0,10.0,56,0.00,,,0.13,241.000000,,2013-05-04 19:52:00,
2013-05-04 14:01:00,44.0,29.0,-100.00,NE,53,4.0,10.0,56,0.00,,,0.13,241.000000,,2013-05-04 20:01:00,
2013-05-04 14:32:00,46.0,31.0,-100.00,ENE,59,3.0,11.0,55,0.00,,,0.13,291.000000,,2013-05-04 20:32:00,
2013-05-04 14:42:00,46.0,31.0,-100.00,ENE,59,3.0,11.0,55,0.00,,,0.13,291.000000,,2013-05-04 20:42:00,
2013-05-04 14:52:00,46.0,31.0,-100.00,ENE,59,3.0,11.0,55,0.00,,,0.13,291.000000,,2013-05-04 20:52:00,
2013-05-04 15:01:00,46.0,31.0,-100.00,ENE,59,3.0,11.0,55,0.00,,,0.13,291.000000,,2013-05-04 21:01:00,
2013-05-04 15:02:00,47.0,30.0,-100.00,NNE,16,4.0,14.0,52,0.00,,,0.13,400.000000,,2013-05-04 21:02:00,
2013-05-04 15:33:00,47.0,30.0,-100.00,NNE,16,4.0,14.0,52,0.00,,,0.13,400.000000,,2013-05-04 21:33:00,
2013-05-04 15:43:00,47.0,30.0,-100.00,NNE,16,4.0,14.0,52,0.00,,,0.13,400.000000,,2013-05-04 21:43:00,
2013-05-04 15:53:00,47.0,30.0,-100.00,NNE,16,4.0,14.0,52,0.00,,,0.13,400.000000,,2013-05-04 21:53:00,
2013-05-04 16:02:00,48.0,31.0,-100.00,ENE,71,4.0,12.0,51,0.00,,,-99.99,354.000000,,2013-05-04 22:02:00,
2013-05-04 16:22:00,48.0,31.0,-100.00,ENE,71,4.0,12.0,51,0.00,,,-99.99,354.000000,,2013-05-04 22:22:00,
2013-05-04 16:33:00,48.0,31.0,-100.00,ENE,71,4.0,12.0,51,0.00,,,-99.99,354.000000,,2013-05-04 22:33:00,
2013-05-04 16:42:00,48.0,31.0,-100.00,ENE,71,4.0,12.0,51,0.00,,,-99.99,354.000000,,2013-05-04 22:42:00,
2013-05-04 16:52:00,48.0,31.0,-100.00,ENE,71,4.0,12.0,51,0.00,,,-99.99,354.000000,,2013-05-04 22:52:00,
2013-05-04 17:22:00,47.0,29.0,-100.00,North,1,4.0,12.0,50,0.00,,,-99.99,315.000000,,2013-05-04 23:22:00,
2013-05-04 17:32:00,47.0,29.0,-100.00,North,1,4.0,12.0,50,0.00,,,-99.99,315.000000,,2013-05-04 23:32:00,
2013-05-04 17:42:00,47.0,29.0,-100.00,North,1,4.0,12.0,50,0.00,,,-99.99,315.000000,,2013-05-04 23:42:00,
2013-05-04 17:52:00,47.0,29.0,-100.00,North,1,4.0,12.0,50,0.00,,,-99.99,315.000000,,2013-05-04 23:52:00,
2013-05-04 18:01:00,47.0,29.0,-100.00,North,1,4.0,12.0,50,0.00,,,-99.99,315.000000,,2013-05-05 00:01:00,
2013-05-04 18:32:00,48.0,30.0,-100.00,NNE,33,5.0,14.0,50,0.00,,,-99.99,352.000000,,2013-05-05 00:32:00,
2013-05-04 18:42:00,48.0,30.0,-100.00,NNE,33,5.0,14.0,50,0.00,,,-99.99,352.000000,,2013-05-05 00:42:00,
2013-05-04 18:52:00,48.0,30.0,-100.00,NNE,33,5.0,14.0,50,0.00,,,-99.99,352.000000,,2013-05-05 00:52:00,
2013-05-04 19:01:00,48.0,30.0,-100.00,NNE,33,5.0,14.0,50,0.00,,,-99.99,352.000000,,2013-05-05 01:01:00,
2013-05-04 19:02:00,46.0,30.0,-100.00,NNE,23,5.0,13.0,54,0.00,,,0.13,162.000000,,2013-05-05 01:02:00,
2013-05-04 19:22:00,46.0,30.0,-100.00,NNE,23,5.0,13.0,54,0.00,,,0.13,162.000000,,2013-05-05 01:22:00,
2013-05-04 19:32:00,46.0,30.0,-100.00,NNE,23,5.0,13.0,54,0.00,,,0.13,162.000000,,2013-05-05 01:32:00,
2013-05-04 19:42:00,46.0,30.0,-100.00,NNE,23,5.0,13.0,54,0.00,,,0.13,162.000000,,2013-05-05 01:42:00,
2013-05-04 19:52:00,46.0,30.0,-100.00,NNE,23,5.0,13.0,54,0.00,,,0.13,162.000000,,2013-05-05 01:52:00,
2013-05-04 20:32:00,45.0,29.0,-100.00,NE,46,4.0,11.0,54,0.00,,,0.12,66.000000,,2013-05-05 02:32:00,
2013-05-04 20:42:00,45.0,29.0,-100.00,NE,46,4.0,11.0,54,0.00,,,0.12,66.000000,,2013-05-05 02:42:00,
2013-05-04 20:52:00,45.0,29.0,-100.00,NE,46,4.0,11.0,54,0.00,,,0.12,66.000000,,2013-05-05 02:52:00,
2013-05-04 21:01:00,45.0,29.0,-100.00,NE,46,4.0,11.0,54,0.00,,,0.12,66.000000,,2013-05-05 03:01:00,
2013-05-04 21:02:00,44.0,30.0,-100.00,NE,34,4.0,10.0,57,0.00,,,0.11,12.000000,,2013-05-05 03:02:00,
2013-05-04 21:22:00,44.0,30.0,-100.00,NE,34,4.0,10.0,57,0.00,,,0.11,12.000000,,2013-05-05 03:22:00,
2013-05-04 21:33:00,44.0,30.0,-100.00,NE,34,4.0,10.0,57,0.00,,,0.11,12.000000,,2013-05-05 03:33:00,
2013-05-04 21:42:00,44.0,30.0,-100.00,NE,34,4.0,10.0,57,0.00,,,0.11,12.000000,,2013-05-05 03:42:00,
2013-05-04 21:53:00,44.0,30.0,-100.00,NE,34,4.0,10.0,57,0.00,,,0.11,12.000000,,2013-05-05 03:53:00,
2013-05-04 22:02:00,43.0,30.0,-100.00,NNE,15,4.0,11.0,61,0.00,,,0.01,0.000000,,2013-05-05 04:02:00,
2013-05-04 22:33:00,43.0,30.0,-100.00,NNE,15,4.0,11.0,61,0.00,,,0.01,0.000000,,2013-05-05 04:33:00,
2013-05-04 22:43:00,43.0,30.0,-100.00,NNE,15,4.0,11.0,61,0.00,,,0.01,0.000000,,2013-05-05 04:43:00,
2013-05-04 22:52:00,43.0,30.0,-100.00,NNE,15,4.0,11.0,61,0.00,,,0.01,0.000000,,2013-05-05 04:52:00,
2013-05-04 23:22:00,43.0,31.0,-100.00,North,10,6.0,12.0,63,0.00,,,0.01,0.000000,,2013-05-05 05:22:00,
2013-05-04 23:32:00,43.0,31.0,-100.00,North,10,6.0,12.0,63,0.00,,,0.01,0.000000,,2013-05-05 05:32:00,
2013-05-04 23:42:00,43.0,31.0,-100.00,North,10,6.0,12.0,63,0.00,,,0.01,0.000000,,2013-05-05 05:42:00,
2013-05-04 23:52:00,43.0,31.0,-100.00,North,10,6.0,12.0,63,0.00,,,0.01,0.000000,,2013-05-05 05:52:00,